Location: Most
(50.5133°N, 13.6207°E)
Time: 10:02:06
(UTC+01:00)

Oscar 11 - Pass Details

Date: 05 December 2021
Orbit: 611 x 625 km, 97.6° (Epoch: 26 January)

Event Time Altitude Azimuth Distance (km) Brightness Sun altitude
Rises 04:35:13 0° 25° (NNE) 2,919 10.8 -29.8°
Reaches altitude 10° 04:37:53 10° 41° (NE) 2,004 10.1 -29.4°
Maximum altitude 04:41:14 21° 91° (E) 1,393 9.6 -28.9°
Drops below altitude 10° 04:44:34 10° 142° (SE) 1,985 10.1 -28.3°
Sets 04:47:11 0° 158° (SSE) 2,883 10.8 -27.9°
